Location: Crayja
(6.2254°N, 10.6273°W)
Time: 14:23:46
(UTC+00:00)

Cosmos 1825 - Pass Details

Date: 17 February 2020
Orbit: 504 x 507 km, 82.5° (Epoch: 04 April)

Event Time Altitude Azimuth Distance (km) Brightness Sun altitude
Exits shadow 05:49:49 19° 342° (NNW) 1,261 3.9 -17.6°
Maximum altitude 05:52:23 59° 266° (W) 586 2.1 -16.9°
Drops below altitude 10° 05:56:05 10° 186° (S) 1,718 4.9 -16.0°
Sets 05:58:14 0° 183° (S) 2,604 5.9 -15.5°
